Preview of NWS' New Version of Forecast
This preview is not operational and should not be used for support decisions.

Regional Weather Roundup (RWR)

Issued by National Weather Service (NWS)

                            
000
ASUS42 KTBW 242018
RWRFL 
FLORIDA REGIONAL WEATHER ROUNDUP
NATIONAL WEATHER SERVICE TAMPA BAY RUSKIN FL
400 PM EDT SAT AUG 24 2019

NOTE: "FAIR" INDICATES FEW OR NO CLOUDS BELOW 12,000 FEET WITH NO
SIGNIFICANT WEATHER AND/OR OBSTRUCTIONS TO VISIBILITY.

FLZ001>010-012>015-112-114-115-242100-
PANHANDLE FLORIDA
  
CITY           SKY/WX    TMP DP  RH WIND       PRES   REMARKS
PENSACOLA      FAIR      91  77  63 S9        29.95F HX 104           
PENSACOLA NAS  FAIR      90  75  61 S9        29.95F HX 100           
MILTON NAS     PTSUNNY   92  76  59 CALM      29.95F HX 104           
CRESTVIEW      FAIR      91  73  55 NW3       29.96F HX  99           
DUKE FIELD     LGT RAIN  90  75  62 SW9       29.95F HX 100           
VALPARAISO     FAIR      88  75  66 S8        29.95F HX  97           
MARY ESTHER    PTSUNNY   89  77  67 SW9       29.94  HX 101           
TRI COUNTY     FAIR      94  70  45 SE6       29.94F HX 100           
PANAMA CITY    MOSUNNY   93  73  52 SE9       29.93  HX 102           
TYNDALL AFB    FAIR      89  75  63 SW12      29.93F HX  99           
APALACHICOLA   FAIR      90  77  65 S10       29.94F HX 103           

STATION/POSITION SKY/WX   TEMP    WIND        PRES    WAVE   SWELL
                          AIR SEA DIR/SP/G            HT/PER HT/PER
                          (F)     (DEG/KT/KT) (MB)    (FT/S) (FT/S)
30.1N   87.6W              84 87  150/  6/  8 1014.8F   1
29.2N   88.2W              84 87   80/ 10/ 14 1015.2F   1/ 6   2/ 6
28.8N   86.0W                 87   60/  4/  6 1014.7F   1/ 3
PANAMA CITY BEAC           86 87  230/  8/  9 1014.9F
TOWER C                    86        CALM     1014.1F
28.5N   84.5W              85     360/  8/ 10 1014.9F   1/ 4

$$
FLZ011-016>038-118-127-128-134-139-239-242100-
NORTH FLORIDA
  
CITY           SKY/WX    TMP DP  RH WIND       PRES   REMARKS
MARIANNA       FAIR      92  73  53 CALM      29.92F HX 100           
TALLAHASSEE    FAIR      96  75  50 N6        29.92F HX 108           
PERRY          FAIR      96  76  52 E3        29.93F HX 110           
LIVE OAK       SUNNY     95  72  46 N5        29.92F HX 103           
CROSS CITY     FAIR      95  73  48 N7        29.93F HX 104           
LAKE CITY      FAIR      93  70  46 NE8       29.94F HX  99           
GAINESVILLE    FAIR      91  72  53 E8        29.95F HX  98           
WILLISTON      FAIR      92  74  56 E6        29.93F HX 101           
MAYPORT NAS    PTSUNNY   89  76  65 NE12      29.96F HX 100           
JACKSONVILLE   PTSUNNY   90  73  57 E14       29.94F HX  98           
JAX NAS        PTSUNNY   92  71  50 NE9       29.95F HX  98           
JAX CECIL      PTSUNNY   95  73  49 MISG      29.93F HX 105           
FERNANDINA BEA FAIR      86  78  75 MISG      29.97S HX  98           
ST AUGUSTINE   FAIR      87  77  72 E13       29.97F HX  99           
PALM COAST     PTSUNNY   88  77  70 NE8       29.96F HX 100           

STATION/POSITION SKY/WX   TEMP    WIND        PRES    WAVE   SWELL
                          AIR SEA DIR/SP/G            HT/PER HT/PER
                          (F)     (DEG/KT/KT) (MB)    (FT/S) (FT/S)
SHELL POINT      NOT AVBL
KEATON BEACH               90     270/  8/ 10 1013.4F
CEDAR KEY                  91      60/  3/  4 1013.6F
FERNANDINA                 92 83              1015.4F
30.7N   81.3W                 85                N/A     2/ 6
MAYPORT                    83 82   60/ 10/ 13 1015.3
31.4N   80.9W              83 84   60/  8/ 10 1014.7F   3/ 6   2/ 6
ST AUGUSTINE               82 84   40/ 10/ 11 1014.7F

$$
FLZ040-043>046-052-053-057-058-063-144-242100-
INTERIOR CENTRAL FLORIDA
  
CITY           SKY/WX    TMP DP  RH WIND       PRES   REMARKS
OCALA          PTSUNNY   90  74  59 NE6       29.93F HX  99           
LEESBURG       FAIR      93  74  53 E16       29.94F HX 103           
SANFORD        FAIR      92  73  53 NE15      29.93F HX 100           
ORLANDO EXEC   FAIR      91  73  55 NE9       29.93F HX  99           
ORLANDO INTL   FAIR      89  73  59 NE13      29.93F HX  97           
KISSIMMEE      CLOUDY    92  74  55 NE12      29.93F HX 101           
WINTER HAVEN   FAIR      93  72  50 E12       29.93F HX 101           
LAKELAND       MOSUNNY   93  73  52 NE13G20   29.93F HX 102           
SEBRING        LGT RAIN  85  78  81 NE7       29.92S HX  97           
OKEECHOBEE     FAIR      90  75  62 NE9       29.90F HX 100           

$$
FLZ041-047-054-059-064-141-147-242100-
EAST CENTRAL FLORIDA
  
CITY           SKY/WX    TMP DP  RH WIND       PRES   REMARKS
ORMOND BEACH   MOSUNNY   86  77  74 E12       29.96S HX  97           
DAYTONA BEACH  PTSUNNY   86  76  71 NE13      29.95F HX  96           
DELAND         FAIR      88  73  62 NE8G20    29.94F HX  96           
NEW SMYRNA BEA PTSUNNY   81  79  94 NE5       29.97F                  
JFK SPACE CTR  PTSUNNY   87  79  76 NE8         N/A  HX 101           
TITUSVILLE     MOSUNNY   91  75  59 NE13      29.95F HX 102           
CAPE CANAVERAL FAIR      87  80  77 MISG      29.93F HX 103           
PATRICK AFB    FAIR      87  79  77 NE14      29.93F HX 102           
MELBOURNE      FAIR      89  76  65 NE13      29.92F HX 100           
VERO BEACH     FAIR      87  75  67 NE13      29.93F HX  96           
FT PIERCE      FAIR      87  76  69 NE12      29.92F HX  97           
STUART         PTSUNNY   84  75  74 E9        29.93F                  

STATION/POSITION SKY/WX   TEMP    WIND        PRES    WAVE   SWELL
                          AIR SEA DIR/SP/G            HT/PER HT/PER
                          (F)     (DEG/KT/KT) (MB)    (FT/S) (FT/S)
28.5N   80.2W              83 83   30/  8/ 10 1013.7F   2/ 7   2/ 7
28.9N   78.5W              79 85  160/ 16/ 19 1014.7F   4/ 6   2/10
TRIDENT PIER               88 84   20/  7/ 13 1015.5
28.4N   80.5W                 84                N/A     2/ 6
27.5N   80.2W                 84                N/A     2/ 7

$$
FLZ050-056-061-142-242-148-248-149-249-151-251-155-255-
160-260-242100-
WEST CENTRAL FLORIDA
  
CITY           SKY/WX    TMP DP  RH WIND       PRES   REMARKS
CRYSTAL RIVER  PTSUNNY   93  73  52 NE10      29.92F HX 102           
INVERNESS      FAIR      93  77  59 NE8       29.93F HX 107           
BROOKSVILLE    FAIR      94  74  52 NE7       29.93F HX 104           
CLEARWATER AIR PTSUNNY   88  77  70 NW12      29.92F HX 100           
ST PETE CLEARW PTSUNNY   91  75  59 NW9       29.92F HX 101           
TAMPA INTL     PTSUNNY   92  72  51 E9        29.92F HX  99           
TAMPA EXEC     FAIR      93  77  59 E9        29.92F HX 107           
PLANT CITY     FAIR      93  77  59 N7        29.94F HX 107           
MACDILL AFB    FAIR      90  75  60 SE6       29.91F HX 100           
PETER O KNIGHT CLOUDY    93  77  59 NE7       29.92F HX 107           
ST PETERSBURG  FAIR      90  75  61 SE5       29.90F HX 100           
SARASOTA       PTSUNNY   93  76  57 VRB3      29.89F HX 105           
VENICE         PTSUNNY   91  79  66 NW15      29.91F HX 107           

STATION/POSITION SKY/WX   TEMP    WIND        PRES    WAVE   SWELL
                          AIR SEA DIR/SP/G            HT/PER HT/PER
                          (F)     (DEG/KT/KT) (MB)    (FT/S) (FT/S)
27.3N   84.2W                 86                N/A     2/ 3
CLEARWATER BEACH           85 89  330/ 14/ 17 1013.7F
MIDDLE TAMPA BAY           88      10/  5/  6 1013.7
VENICE                     86 86  310/ 15/ 16 1012.7F

$$
FLZ066-069-070-075>078-162-262-165-265-242100-
SOUTHWEST FLORIDA AND KEYS
  
CITY           SKY/WX    TMP DP  RH WIND       PRES   REMARKS
PUNTA GORDA    PTSUNNY   92  76  59 NE8       29.91F HX 104           
FT MYERS       FAIR      91  77  63 N7        29.89F HX 104           
SOUTHWEST INTL FAIR      91  77  63 SE3       29.89F HX 104           
NAPLES         FAIR      90  80  72 W12       29.89F HX 107           
MARCO ISLAND   PTSUNNY   88  78  72 W10       29.90F HX 101           
IMMOKALEE      PTSUNNY   91  77  62 NE5       29.87F HX 105           
MARATHON       PTSUNNY   88  77  69 NW6       29.91F HX 100           
KEY WEST NAS   PTSUNNY   92  76  59 N9        29.91F HX 104           
KEY WEST INTL  FAIR      90  78  68 NW10      29.91F HX 104           

STATION/POSITION SKY/WX   TEMP    WIND        PRES    WAVE   SWELL
                          AIR SEA DIR/SP/G            HT/PER HT/PER
                          (F)     (DEG/KT/KT) (MB)    (FT/S) (FT/S)
NAPLES                     86 89              1012.8F
26.0N   85.6W              85 85   20/ 10/ 14 1014.5F   1/ 4
DRY TORTUGAS               85      50/  7/ 11 1013.5F
SAND KEY                   83     220/  5/  8 1012.0F
SOMBRERO KEY               85     200/  6/  8 1013.5F
LONG KEY                   87                 1012.4F

$$
FLZ067-068-071>074-168-172>174-242100-
SOUTHEAST FLORIDA 
  
CITY           SKY/WX    TMP DP  RH WIND       PRES   REMARKS
W PALM BEACH   PTSUNNY   84  79  85 S5        29.91F HX  96           
BOCA RATON     MOSUNNY   86  75  70 W6        29.91F HX  95           
FT LAUDER-EXEC FAIR      85  77  77 S8        29.90F HX  95           
FT LAUDERDALE  PTSUNNY   84  76  76 SW9       29.90F                  
POMPANO BEACH  FAIR      86  75  69 CALM      29.90F HX  95           
PEMBROKE PINES FAIR      85  76  74 S3        29.91F                  
OPA LOCKA      FAIR      84  77  79 S9        29.90F                  
MIAMI          PTSUNNY   83  76  79 SE6       29.91F                  
WEST KENDALL   FAIR      83  79  88 SE6       29.90F                  
HOMESTEAD      FAIR      83  79  90 E6        29.90F                  

STATION/POSITION SKY/WX   TEMP    WIND        PRES    WAVE   SWELL
                          AIR SEA DIR/SP/G            HT/PER HT/PER
                          (F)     (DEG/KT/KT) (MB)    (FT/S) (FT/S)
VIRGINIA KEY               82 87  180/  7/  8 1012.7F
LAKE WORTH                 83 86  140/  1/  2 1013.9
FOWEY ROCKS                83 85  200/  8/ 10 1013.2F
SETTLEMENT POINT           84     190/  8/  9 1013.4F

$$